Home   Weather   Inuvik   Past weeks

Flag for Canada Past Weather in Inuvik, Northwest Territories, Canada — Yesterday and Last 2 Weeks

Now
37 °F

Partly sunny.


Feels Like: 32 °F
Forecast: 31 / 36 °F
Wind: 7 mph from Northeast

Location: Inuvik

Current Time: Sep 28, 2016 at 11:10:53 PM

Latest Report: Sep 28, 2016 at 10:00 PM


Visibility: 15 mi

Pressure: 29.94 "Hg

Humidity: 65%

Dew Point: 27 °F

Location of InuvikLocation

Past Weather in Inuvik — Graph

°F

Inuvik Temperature Yesterday

Maximum temperature yesterday: 37 °F (at 5:00 PM)
Minimum temperature yesterday: 25 °F (at 2:00 AM)
Average temperature yesterday: 33 °F

High & Low Weather Summary for the Past Weeks

 TemperatureHumidityPressure
High63 °F (Sep 21, 6:00 PM)100% (Sep 14, 9:00 PM)30.15 "Hg (Sep 14, 9:00 PM)
Low25 °F (Sep 27, 2:00 AM)34% (Sep 22, 5:00 PM)29.01 "Hg (Sep 22, 10:00 PM)
Average40 °F73%29.69 "Hg
* Reported Sep 13 10:00 PM — Sep 28 10:00 PM, Inuvik, Weather by CustomWeather, © 2016

Note: Actual official high and low records may vary slightly from our data, if they occured in-between our weather recording intervals... More about our weather records

Advertising

Inuvik Weather History for the Previous 24 Hours

Scroll right to see more
 ConditionsComfort  
Time TempWeatherWind HumidityBarometerVisibility
10:00 PM
Wed, Sep 28
37 °FPartly sunny.7 mph65%29.94 "Hg15 mi
9:00 PM36 °FPartly sunny.8 mph75%29.94 "Hg15 mi
8:00 PM36 °FPartly sunny.5 mph60%29.96 "Hg15 mi
7:00 PM39 °FPartly sunny.3 mph56%29.98 "Hg15 mi
6:00 PM41 °FPartly sunny.5 mph53%29.99 "Hg15 mi
5:00 PM41 °FPartly sunny.3 mph57%30.01 "Hg15 mi
4:00 PM41 °FPartly sunny.5 mph61%30.02 "Hg15 mi
3:00 PM41 °FScattered clouds.5 mph61%30.04 "Hg15 mi
2:00 PM37 °FPassing clouds.6 mph75%30.06 "Hg15 mi
1:00 PM36 °FPassing clouds.3 mph87%30.07 "Hg15 mi
12:49 PM36 °FScattered clouds.2 mph87%30.07 "Hg15 mi
12:00 PM34 °FBroken clouds.2 mph93%30.08 "Hg15 mi
11:00 AM32 °FFog.2 mph93%30.09 "Hg8 mi
10:00 AM30 °FPassing clouds.2 mph93%30.09 "Hg15 mi
9:00 AM30 °FPassing clouds.No wind100%30.10 "Hg15 mi
8:00 AM30 °FOvercast.No wind93%30.10 "Hg15 mi
7:00 AM32 °FOvercast.No wind93%30.11 "Hg15 mi
6:00 AM32 °FOvercast.3 mph93%30.11 "Hg15 mi
5:00 AM32 °FOvercast.2 mph93%30.12 "Hg15 mi
4:00 AM32 °FOvercast.No wind87%30.12 "Hg15 mi
3:00 AM32 °FOvercast.2 mph87%30.12 "Hg15 mi
2:00 AM32 °FOvercast.No wind87%30.13 "Hg10 mi
1:00 AM32 °FMostly cloudy.2 mph80%30.14 "Hg15 mi
12:00 AM34 °FLight snow. Mostly cloudy.5 mph75%30.14 "Hg15 mi
11:00 PM
Tue, Sep 27
34 °FLight snow. Overcast.3 mph75%30.15 "Hg15 mi
Weather by CustomWeather, © 2016

See weather overviewHow to use our weather pages